Probability
1 1 0 0 0 1 2 2 1 0 0 0 0 0 0 0 0 0 0 0 0 0 0 0 0 0 0 0 0 0 0 0 0 0 0 0 0 0 0 0 0 0 0
1 0 0 0 0 0 1 1 1 1 1 1 1 0 1 1 1 1 1 0 0 0 0 0 0 0 0 0 0 0 0 0 0 0 0 0 0 0 0 0 0 0 0
0 1 1 0 0 0 0 0 0 1 2 2 2 2 2 2 2 2 2 1 1 1 1 0 0 0 0 0 0 0 0 0 0 0 0 0 0 0 0 0 0 0 0
1 2 2 1 0 0 0 0 0 1 2 3 3 3 3 3 3 3 3 3 3 2 1 0 0 0 0 0 0 0 0 0 0 0 0 0 0 0 0 0 0 0 0
2 3 2 1 0 0 0 0 0 1 2 3 3 3 2 2 2 2 2 3 3 2 1 0 0 0 0 0 0 0 0 0 0 0 0 0 0 0 0 0 0 0 0
1 2 2 1 1 1 1 1 0 0 1 2 2 1 1 1 1 1 1 1 1 1 0 0 0 0 0 0 0 0 0 0 0 0 0 0 0 0 0 0 0 0 0
0 1 1 2 2 2 2 2 1 1 1 2 1 0 0 0 0 0 0 0 0 0 0 0 0 0 0 0 0 0 0 0 0 0 0 0 0 0 0 0 0 0 0
0 0 1 1 1 2 2 2 2 2 1 1 0 0 0 0 0 0 0 0 0 0 0 0 0 0 0 0 0 0 0 0 0 0 0 0 0 0 0 0 0 0 0
0 0 0 0 0 1 1 1 1 1 1 0 0 0 0 0 0 0 0 0 0 0 0 0 0 0 0 0 0 0 0 0 0 0 0 0 0 0 0 0 0 0 0
0 0 0 0 0 0 0 0 0 0 0 0 0 0 0 0 0 0 0 0 0 0 0 0 0 0 0 0 0 0 0 0 0 0 0 0 0 0 0 0 0 0 0
0 0 0 0 0 0 0 0 0 0 0 0 0 0 0 0 0 0 0 0 0 0 0 0 0 0 0 0 0 0 0 0 0 0 0 0 0 0 0 0 0 0 0
0 0 0 0 0 0 0 0 0 0 0 0 0 0 0 0 0 0 0 0 0 0 0 0 0 0 0 0 0 0 0 0 0 0 0 0 0 0 0 0 0 0 0
0 0 0 0 0 0 0 0 0 0 0 0 0 0 0 0 0 0 0 0 0 0 0 0 0 0 0 0 0 0 0 0 0 0 0 0 0 0 0 0 0 0 0
0 0 0 0 0 0 0 0 0 0 0 0 0 0 0 0 0 0 0 0 0 0 0 0 0 0 0 0 0 0 0 0 0 0 0 0 0 0 0 0 0 0 0
0 0 0 0 0 0 0 0 0 0 0 0 0 0 0 0 0 0 0 0 0 0 0 0 0 0 0 0 0 0 0 0 0 0 0 0 0 0 0 0 0 0 0
0 0 0 0 0 0 0 0 0 0 0 0 0 0 0 0 0 0 0 0 0 0 0 0 0 0 0 0 0 0 0 0 0 0 0 0 0 0 0 0 0 0 0
0 0 0 0 0 0 0 0 0 0 0 0 0 0 0 0 0 0 0 0 0 0 0 0 0 0 0 0 0 0 0 0 0 0 0 0 0 0 0 0 0 0 0
0 0 0 0 0 0 0 0 0 0 0 0 0 0 0 0 0 0 0 0 0 0 0 0 0 0 0 0 0 0 0 0 0 0 0 0 0 0 0 0 0 0 0
0 0 0 0 0 0 0 0 0 0 0 0 0 0 0 0 0 0 0 0 0 0 0 0 0 0 0 0 0 0 0 0 0 0 0 0 0 0 0 0 0 0 0
0 0 0 0 0 0 0 0 0 0 0 0 0 0 0 0 0 0 0 0 0 0 0 0 0 0 0 0 0 0 0 0 0 0 0 0 0 0 0 0 0 0 0
0 0 0 0 0 0 0 0 0 0 0 0 0 0 0 0 0 0 0 0 0 0 0 0 0 0 0 0 0 0 0 0 0 0 0 0 0 0 0 0 0 0 0
0 0 0 0 0 0 0 0 0 0 0 0 0 0 0 0 0 0 0 0 0 0 0 0 0 0 0 0 0 0 0 0 0 0 0 0 0 0 0 0 0 0 0
0 0 0 0 0 0 0 0 0 0 0 0 0 0 0 0 0 0 0 0 0 0 0 0 0 0 0 0 0 0 0 0 0 0 0 0 0 0 0 0 0 0 0
0 0 0 0 0 0 0 0 0 0 0 0 0 0 0 0 0 0 0 0 0 0 0 0 0 0 0 0 0 0 0 0 0 0 0 0 0 0 0 0 0 0 0
0 0 0 0 0 0 0 0 0 0 0 0 0 0 0 0 0 0 0 0 0 0 0 0 0 0 0 0 0 0 0 0 0 0 0 0 0 0 0 0 0 0 0
0 0 0 0 0 0 0 0 0 0 0 0 0 0 0 0 0 0 0 0 0 0 0 0 0 0 0 0 0 0 0 0 0 0 0 0 0 0 0 0 0 0 0
Wind_Speed
1 2 2 2 3 3 4 5 5 5 6 6 7 8 9 9 8 8 9 8 10 9 8 9 9 7 6 5 5 5 6 6 8 5 2 2 2 2 2 2 2 2 3
1 1 2 2 2 3 4 4 4 4 4 5 5 6 7 8 8 8 9 9 10 10 9 9 9 7 8 6 5 6 6 6 6 7 4 2 2 2 2 3 3 2 3
1 2 1 1 2 2 3 3 3 3 4 4 4 5 6 6 7 8 8 9 9 9 9 9 8 7 8 6 6 6 5 4 4 5 5 2 2 1 2 2 3 3 3
2 1 2 2 2 3 3 2 2 3 3 3 4 5 5 5 5 6 7 7 7 7 7 7 7 7 7 6 5 5 4 4 3 4 4 2 2 1 1 2 3 2 3
3 2 2 2 2 2 1 2 2 2 3 3 3 3 3 3 4 4 5 6 7 6 5 5 5 5 5 5 4 4 4 4 3 4 4 3 2 1 1 2 3 3 3
3 3 3 2 2 2 2 1 2 2 2 2 2 3 3 3 3 4 4 4 5 5 5 4 3 4 4 4 4 3 4 4 5 4 4 4 4 3 2 2 2 3 3
3 3 2 2 2 2 2 2 2 2 2 2 3 3 3 4 4 4 4 4 4 4 4 4 3 2 3 4 3 2 2 3 4 5 5 5 4 3 2 3 3 3 4
3 3 3 2 3 3 3 2 2 2 2 3 3 3 3 3 3 3 4 3 3 3 3 4 4 4 4 4 3 3 2 2 3 3 4 4 3 2 3 3 3 3 3
3 4 3 3 3 3 3 3 2 2 2 2 2 3 3 3 2 3 4 2 2 2 2 2 3 3 4 5 4 4 3 2 0 1 2 2 1 1 0 1 1 1 3
4 5 4 3 4 4 4 3 2 2 3 2 2 2 3 3 2 3 4 2 2 2 1 1 2 3 4 5 4 4 4 3 1 1 0 1 1 0 0 1 2 2 2
4 4 4 3 4 4 3 2 2 2 2 2 2 2 2 2 2 3 3 3 3 3 2 2 2 3 4 5 4 4 4 3 2 2 1 0 1 1 1 1 1 2 2
3 3 3 3 3 2 2 2 1 1 2 2 2 2 1 1 1 2 3 4 3 3 3 2 3 5 4 4 4 3 3 3 2 2 1 1 0 1 1 2 2 1 1
3 3 3 3 3 2 2 2 1 2 2 3 2 2 2 1 1 2 3 4 3 2 2 3 4 5 4 3 3 3 3 2 2 2 2 1 1 1 1 1 2 2 2
3 4 3 3 3 2 2 2 2 3 3 3 3 3 2 1 1 1 1 2 2 2 2 2 4 4 3 3 2 2 1 1 2 2 1 1 0 0 0 1 1 1 2
3 3 3 2 2 2 2 2 3 3 4 4 3 3 3 3 3 4 3 2 3 3 3 2 2 2 2 1 1 1 1 1 1 1 1 1 1 0 0 1 1 1 1
3 3 2 2 2 1 1 2 2 3 3 4 4 3 2 3 4 4 4 4 5 7 4 3 3 2 3 2 2 1 1 1 1 1 1 1 1 1 0 1 1 1 2
3 3 2 2 2 2 1 1 2 2 1 2 2 3 3 3 3 4 4 4 5 6 3 3 3 3 3 3 3 2 2 1 1 1 2 1 1 1 1 1 1 1 2
3 3 3 2 2 2 2 2 2 2 2 2 2 1 2 2 3 4 5 4 3 2 2 3 3 3 3 2 2 2 2 2 1 2 2 2 2 2 1 1 1 1 2
2 2 2 2 2 2 2 2 2 2 2 2 1 1 1 2 2 3 4 3 3 2 2 2 2 3 2 2 2 2 2 2 2 2 2 2 2 2 2 2 2 2 2
2 3 2 2 2 1 1 2 2 2 2 2 2 2 1 1 1 1 1 1 2 2 2 2 2 2 2 2 2 2 2 3 3 2 2 2 2 3 3 3 2 2 2
2 2 2 2 2 2 2 2 2 2 2 2 2 3 3 2 2 2 2 2 2 3 2 2 2 2 2 2 3 3 3 3 3 3 3 3 3 3 2 2 2 2 2
2 2 2 2 2 2 2 2 2 2 2 3 2 2 3 2 2 2 2 2 2 2 2 2 2 2 3 3 3 3 3 3 3 3 3 3 3 2 2 2 2 2 2
2 2 2 2 2 2 2 2 2 2 2 2 2 2 2 2 3 3 2 2 2 1 1 2 2 2 2 2 2 3 4 4 4 4 4 3 3 3 3 3 3 3 3
1 1 1 2 2 2 2 2 2 2 2 2 2 2 2 3 3 3 2 2 2 2 2 2 3 4 4 2 2 2 3 4 4 4 6 5 4 3 3 3 4 4 4
1 1 1 1 2 2 2 2 2 2 2 2 2 2 2 2 2 2 2 2 2 2 2 2 2 3 4 4 4 3 5 6 5 4 4 4 5 5 4 4 4 3 4
1 1 1 1 1 2 2 2 2 2 1 2 2 2 2 2 2 2 2 2 2 2 2 2 3 3 4 3 4 5 5 6 6 6 5 4 5 5 4 4 5 4 4
Wind_Direction
252 231 224 231 227 218 219 224 224 222 218 220 223 219 215 217 217 217 221 218 221 225 224 225 229 226 229 229 225 226 230 231 251 262 242 241 240 264 289 289 289 288 298
316 270 236 234 231 222 224 229 228 227 223 223 223 226 223 217 214 215 221 220 221 224 225 223 228 224 227 228 225 229 233 232 241 258 260 256 252 268 281 292 298 300 290
332 329 295 269 254 247 243 238 232 232 235 226 221 224 229 223 216 217 220 221 222 224 223 222 223 218 226 226 224 227 231 234 235 247 258 253 258 281 294 296 296 293 300
337 334 319 295 274 263 256 249 238 230 233 236 232 229 229 228 221 218 217 218 220 222 222 220 220 217 220 219 218 221 220 224 230 239 252 257 259 278 293 290 299 303 300
332 326 301 300 293 286 279 269 253 239 236 236 239 240 236 231 227 219 217 215 213 213 215 217 216 212 216 213 211 211 209 217 223 235 248 250 248 271 279 291 289 307 297
316 304 309 318 307 293 284 284 278 257 245 234 234 236 236 235 226 216 217 220 212 206 205 205 202 194 192 188 186 193 204 214 225 232 240 246 254 255 264 265 277 304 295
305 299 312 313 302 302 297 287 276 274 259 236 236 237 243 240 222 209 207 209 209 206 200 195 196 196 190 192 178 177 216 231 231 235 240 247 250 247 245 255 260 267 269
298 300 302 295 286 290 286 270 269 272 262 254 248 245 251 254 227 199 185 195 198 199 199 192 189 191 189 185 180 191 220 239 239 239 245 256 257 239 225 238 255 273 289
282 278 276 270 268 264 262 265 265 256 258 255 256 248 243 254 230 193 166 184 194 200 192 189 187 192 186 172 180 194 212 236 250 194 235 262 282 283 223 182 220 272 292
277 280 277 265 259 256 255 262 271 255 255 254 259 258 246 248 233 195 174 179 191 198 184 188 191 195 180 172 190 198 213 223 182 174 237 343 337 336 344 221 219 242 280
286 288 283 270 259 258 262 258 248 249 252 250 247 258 247 242 228 199 186 193 190 189 197 205 204 190 182 179 193 212 214 190 178 180 174 96 29 20 14 360 316 250 247
293 288 286 283 275 263 257 261 245 222 232 247 243 254 244 225 217 206 198 204 198 195 204 207 202 187 184 185 196 197 170 150 155 160 165 199 265 329 353 1 355 339 297
301 291 289 290 285 268 252 249 243 223 223 233 230 242 259 251 211 208 199 200 200 200 200 197 187 175 171 176 166 146 134 151 155 165 193 225 261 287 342 7 10 8 346
288 292 295 291 295 288 262 243 233 225 224 226 223 228 240 243 225 196 191 193 182 170 153 137 136 143 137 118 118 122 135 163 172 180 183 187 115 73 7 356 336 342 345
271 279 284 279 277 292 288 261 252 252 229 229 231 218 215 230 224 211 201 198 188 177 139 119 117 131 128 114 108 106 116 125 131 141 160 169 180 214 325 344 321 324 302
266 264 264 267 269 261 273 311 282 255 245 236 234 233 242 231 218 206 198 192 178 162 144 159 168 169 173 171 165 165 166 155 150 160 169 181 192 203 286 326 320 304 290
256 257 259 259 257 253 244 245 282 325 295 255 234 228 221 206 200 198 187 173 170 159 153 169 179 183 185 182 179 182 193 179 165 179 188 187 188 191 211 256 285 299 295
272 260 250 250 251 247 243 242 242 243 275 304 311 247 220 200 188 176 166 150 158 159 173 177 182 186 189 191 188 183 177 166 170 191 192 186 187 190 205 231 251 263 281
277 267 257 252 246 242 242 239 237 233 237 262 302 309 270 206 175 160 149 151 172 190 193 190 187 187 189 187 183 181 185 188 188 196 199 197 194 192 210 224 238 247 262
281 274 262 250 248 246 241 234 233 227 227 232 236 245 238 176 171 172 160 171 182 192 195 199 199 194 190 188 182 180 187 192 190 199 203 203 205 205 212 220 226 239 258
288 285 273 258 247 243 239 235 234 229 230 234 241 235 213 195 195 195 200 203 204 203 201 201 203 200 199 191 188 190 197 207 204 203 201 204 206 209 213 219 231 242 255
286 279 270 257 254 247 243 237 232 228 226 232 245 232 213 203 206 209 214 218 217 211 202 197 204 206 205 203 197 197 206 212 210 203 204 206 208 210 208 214 226 239 245
291 288 288 278 262 250 248 238 228 226 228 235 237 233 213 210 213 216 221 223 213 209 199 190 199 212 212 209 205 201 207 213 209 200 200 205 208 210 210 217 225 235 244
292 279 277 283 278 254 243 243 239 234 232 235 235 230 223 218 216 213 215 217 213 213 204 201 207 212 214 215 214 215 217 216 203 200 199 200 207 210 212 220 229 231 241
295 279 269 265 267 266 263 260 255 245 236 233 234 234 230 222 216 214 207 204 209 217 221 219 214 212 214 220 224 223 225 230 222 202 195 198 205 209 210 219 225 231 240
297 283 279 276 272 269 264 267 270 266 260 257 245 233 227 223 221 222 216 208 214 226 236 236 224 224 229 232 228 231 232 234 227 210 197 196 202 209 205 214 217 225 233